Tracking 30166 objects as of 22-Jan-2025
HD Live streaming from Space Station
objects crossing your sky now

OBJECT AZ

Track OBJECT AZ now!
10-day predictions


NORAD ID: 61782
Int'l Code: 2024-199AZ
Perigee: 480.0 km
Apogee: 503.3 km
Inclination: 97.4 °
Period: 94.3 minutes
Semi major axis: 6862 km
RCS: Unknown
Launch date: November 4, 2024
Source: (TBD)
Launch site: VOSTOCHNY COSMODROME (VOSTO)
Your satellite tracking list
Your tracking list is empty




NASA's NSSDC Master Catalog

Two Line Element Set (TLE):
1 61782U 24199AZ  25022.45630500  .00038863  00000-0  14530-2 0  9996
2 61782  97.3755 252.1392 0016980 331.1136  28.9162 15.27097624 55818
Source of the keplerian elements: AFSPC